Location: *
(58.4167°N, 22.5000°E)
Time: 21:06:39
(UTC+00:00)

Cosmos 2181 Rocket - Pass Details

Date: 22 September 2019
Orbit: 953 x 1014 km, 82.9° (Epoch: 14 October)

Event Time Altitude Azimuth Distance (km) Brightness Sun altitude
Rises 18:33:53 0° 194° (SSW) 3,675 6.9 -16.3°
Reaches altitude 10° 18:36:23 10° 195° (SSW) 2,740 6.2 -16.6°
Maximum altitude 18:42:42 82° 283° (WNW) 1,015 4.1 -17.3°
Drops below altitude 10° 18:49:09 10° 12° (NNE) 2,796 6.6 -18.0°
Sets 18:51:43 0° 14° (NNE) 3,756 7.3 -18.3°
